Overview Statistics Trail Chart Weather Telemetry Raw packets
 

This is the latest recevied weather packets stored in our database for station/object HP3ICC-14. If no packets are shown the sender has not sent any weather packets the latest 10 day(s).

<< 25 26 27 28 29 30 31 >>
Time Temp. Humidity Pressure Rain* Wind** Luminosity Snow
1788228041 22.78° C 77% 1012 hPa 0 mm - - -
1788226900 23.33° C 77% 1012 hPa 0 mm - - -
1788226844 23.33° C 77% 1012 hPa 0 mm - - -
1788225699 23.89° C 77% 1012 hPa 0 mm - - -
1788225639 23.89° C 77% 1012 hPa 0 mm - - -
1788224499 24.44° C 77% 1012 hPa 0 mm - - -
1788224439 24.44° C 77% 1012 hPa 0 mm - - -
1788223299 25° C 77% 1011 hPa 0 mm - - -
1788223239 25° C 77% 1011 hPa 0 mm - - -
1788222039 25.56° C 77% 1010 hPa 0.25 mm - - -
1788220898 26.11° C 77% 1010 hPa 0 mm - - -
1788220838 26.11° C 77% 1010 hPa 0 mm - - -
1788219638 26.67° C 77% 1010 hPa 0 mm - - -
1788218498 27.22° C 77% 1009 hPa 0 mm - - -
1788218438 27.22° C 77% 1009 hPa 0 mm - - -
1788217298 21.67° C 75% 1009 hPa 0 mm - - -
1788217237 21.67° C 75% 1009 hPa 0 mm - - -
1788216097 22.22° C 75% 1009 hPa 0.25 mm - - -
1788216037 22.22° C 75% 1009 hPa 0.25 mm - - -
1788214897 22.78° C 75% 1009 hPa 0.76 mm - - -
1788214837 22.78° C 75% 1009 hPa 0.76 mm - - -
1788213696 23.33° C 75% 1009 hPa 1.02 mm - - -
1788213637 23.33° C 75% 1009 hPa 1.02 mm - - -
1788212496 23.89° C 75% 1009 hPa 0.76 mm - - -
1788212435 23.89° C 75% 1009 hPa 0.76 mm - - -

* Rain latest hour (hover to see other rain measurements)
** Current wind speed in m/s (hover to see current wind gust speed)